Regional Weather Roundup
Issued by NWS Huntsville, AL

Home | Current Version | Previous Version | Text Only | Print | Product List | Glossary On
Versions: 1 2 3 4 5 6 7 8 9 10 11 12 13 14 15 16 17 18 19 20 21 22 23 24 25 26 27 28 29 30 31 32 33 34 35 36 37 38 39 40 41 42 43 44 45 46 47 48 49 50
000
ASUS44 KHUN 132210
RWRHUN

WEATHER ROUNDUP FOR THE TENNESSEE VALLEY
NATIONAL WEATHER SERVICE HUNTSVILLE AL
400 PM CST SAT FEB 13 2016

ALZ001>004-132300-
NORTHWEST ALABAMA

CITY           SKY/WX    TMP DP  RH WIND       PRES   REMARKS
RUSSELLVILLE     N/A     37 N/A N/A MISG        N/A
SHOALS AIRPORT SUNNY     39   4  23 NE6       30.46F WCI  35
SHOALS TVA RES   N/A     37 N/A N/A MISG        N/A
$$

ALZ005>007-016-132300-
NORTH CENTRAL ALABAMA

CITY           SKY/WX    TMP DP  RH WIND       PRES   REMARKS
CULLMAN AG STN   N/A     37 N/A N/A MISG        N/A
DECATUR AP     SUNNY     37   3  24 MISG      30.46S
HUNTSVILLE AP  SUNNY     38   3  23 N7        30.44S WCI  33
HUN NWS/UAH      N/A     35  -2  20 N8          N/A  WCI  29
MERIDIANVILLE  SUNNY     36  -6  17 N10       30.44S WCI  28
REDSTONE ARSN  SUNNY     36   2  23 NE8       30.44R WCI  30
VINEMONT AP    FAIR      36   2  23 N10G16    30.43S WCI  29
$$

ALZ008>010-132300-
NORTHEAST ALABAMA

CITY           SKY/WX    TMP DP  RH WIND       PRES   REMARKS
ALBERTVILLE    SUNNY     36  14  41 N12       30.38S WCI  27
FORT PAYNE     SUNNY     36  -4  18 NW12      30.38R WCI  27
SCOTTSBORO AP  SUNNY     37   0  20 N10G16    30.43R WCI  30
SCOTTSBORO HCN   N/A     37 N/A N/A MISG        N/A
VALLEY HEAD      N/A     37 N/A N/A MISG        N/A
$$

TNZ076-096-097-132300-
SOUTHEASTERN MIDDLE TENNESSEE

CITY           SKY/WX    TMP DP  RH WIND       PRES   REMARKS
TULLAHOMA      SUNNY     30   1  29 VRB7      30.43R WCI  23
WINCHESTER     SUNNY     30   5  34 N9        30.43R WCI  22
$$

...SURROUNDING SITES...

CITY           SKY/WX    TMP DP  RH WIND       PRES   REMARKS
ATLANTA        SUNNY     42   4  20 N18G25    30.33R
ANNISTON       SUNNY     43   4  19 N8G17     30.39R
BIRMINGHAM     SUNNY     42   5  21 N10       30.42R
CHATTANOOGA    SUNNY     37   0  21 N12       30.41S WCI  29
DALTON         SUNNY     36   9  32 N13       30.39F WCI  27
GADSDEN        SUNNY     40  10  29 NW9       30.41R WCI  34
GOLDEN TRNGL   SUNNY     46  10  23 N12       30.42S
HALEYVILLE     FAIR      38   7  27 VRB6      30.43F WCI  33
JACKSON TN     CLOUDY    33   6  32 N7        30.49F WCI  27
MEMPHIS        MOSUNNY   38   5  25 NE10      30.46F WCI  31
NASHVILLE      PTSUNNY   32   1  26 N8        30.49F WCI  25
OXFORD MS      FAIR      41   5  22 NE10      30.44F
ROME           SUNNY     40   3  21 NE8       30.37S WCI  34
SAVANNAH       SUNNY     34   1  25 N5        30.46F WCI  30
TUPELO         SUNNY     41   5  22 N13       30.45F
TUSCALOOSA     SUNNY     47   4  17 N13       30.41F
$$

...GULF COAST WEATHER...

CITY           SKY/WX    TMP DP  RH WIND       PRES   REMARKS
GULFPORT       SUNNY     62  27  26 N5        30.33S
PASCAGOULA     SUNNY     61  27  27 N9        30.33F
MOBILE         MOSUNNY   59  22  24 N9        30.34S
GULF SHORES    CLEAR     60  23  24 N7        30.32S
PENSACOLA      SUNNY     61  17  18 NE9       30.31S
DESTIN         SUNNY     61  22  22 N9        30.30F
PANAMA CITY    SUNNY     61  18  19 N9        30.29S
APPALACHICOLA  SUNNY     62  20  19 N8        30.28S
$$




USA.gov is the U.S. government's official web portal to all federal, state and local government web resources and services.